Dewpoint
38 39 39 39 40 41 41 43 42 43 44 44 45 47 49 51 52 53 54 56 56 56
36 37 36 36 37 36 37 39 39 39 39 40 41 42 45 47 48 51 53 53 53 54
35 36 36 35 35 35 35 36 37 37 37 38 39 40 42 42 43 43 43 45 45 45
35 35 34 34 34 35 35 35 35 35 35 36 37 39 39 40 40 39 41 41 41 42
34 35 33 33 33 33 32 33 34 34 34 34 34 35 38 38 38 38 38 38 39 40
29 29 30 30 31 32 31 32 32 32 33 34 34 33 35 35 36 37 37 37 36 35
27 28 29 29 30 30 30 30 31 32 33 33 34 33 32 32 33 33 33 34 34 34
26 28 28 28 28 29 28 28 30 30 30 31 32 32 31 30 30 31 32 32 32 33
26 26 26 25 24 25 25 27 27 27 28 31 32 30 31 29 28 28 30 31 30 30
23 24 25 24 23 22 23 24 24 26 27 28 30 29 30 29 28 28 28 26 26 27
21 23 23 22 22 21 21 22 23 23 24 27 28 28 28 28 27 27 27 28 28 27
20 22 21 20 21 21 20 20 21 23 22 23 25 30 29 28 26 26 26 26 26 30
21 21 19 19 20 20 19 20 20 20 22 24 24 29 27 28 27 26 26 25 25 28
21 20 18 18 20 20 18 19 20 21 22 23 28 27 28 27 26 26 24 24 23 25
Wind_Speed
12 11 10 11 12 10 10 11 13 13 10 11 12 12 12 12 15 17 18 20 18 16
9 11 12 12 9 11 11 12 12 12 12 11 11 13 13 13 13 13 9 6 6 7
13 13 12 11 13 13 13 13 13 14 14 12 12 14 13 13 16 13 14 12 9 8
10 10 11 11 11 11 11 14 16 15 14 14 14 15 14 12 14 16 16 15 13 12
9 10 12 13 12 12 11 10 11 14 15 15 15 15 12 12 13 12 14 15 15 16
8 9 10 11 12 12 12 12 12 11 13 15 15 14 14 10 10 10 12 13 13 14
5 6 7 9 10 10 10 12 13 13 13 12 13 13 13 13 11 9 10 11 12 11
1 3 5 6 7 8 10 10 10 13 13 13 12 11 12 14 12 12 11 10 10 12
1 1 2 4 5 6 7 7 8 9 11 14 9 14 15 14 12 11 10 10 10 9
1 1 1 3 5 6 6 6 6 6 7 8 7 11 12 13 12 12 11 10 10 11
3 2 1 3 4 4 4 4 3 5 6 7 8 10 10 10 9 9 11 11 10 11
5 4 1 2 3 2 3 2 2 2 3 5 8 10 9 9 8 9 9 8 8 9
6 4 3 2 2 1 2 3 3 2 2 3 5 9 7 8 6 8 8 10 11 12
8 6 4 3 1 1 2 2 3 2 3 3 5 7 7 8 5 4 6 7 9 11
Wind_Direction
7 3 8 8 2 358 352 350 356 351 357 352 344 337 331 313 296 277 270 261 254 256
18 23 21 14 12 4 358 1 356 0 357 359 360 359 356 349 339 327 332 302 289 278
15 16 14 14 17 12 3 359 3 4 1 357 15 13 17 12 2 9 14 17 20 46
11 14 17 19 13 8 8 6 1 355 1 357 7 21 18 20 27 16 17 26 29 28
7 9 14 14 7 359 3 8 10 357 356 360 6 5 12 26 24 29 36 19 19 28
10 11 10 9 8 4 1 3 6 12 4 359 2 4 2 14 31 39 39 40 29 33
12 12 15 13 16 12 11 14 16 16 11 7 4 15 9 11 20 40 50 46 50 49
31 22 19 14 6 7 16 16 16 18 15 12 12 18 26 20 24 28 25 40 43 49
243 16 18 22 14 18 20 18 26 24 18 19 11 36 32 35 27 26 31 22 21 27
215 276 353 13 15 11 12 11 18 22 26 29 32 37 36 40 36 35 29 26 25 19
193 214 317 357 7 8 17 17 13 15 13 19 13 44 49 51 48 56 48 31 13 13
195 201 233 317 331 357 1 355 1 338 13 17 5 6 52 46 41 34 23 18 20 8
188 197 217 251 291 322 328 325 334 325 7 16 8 359 26 68 50 27 7 358 354 355
179 192 199 196 191 295 351 14 35 73 37 27 10 4 15 2 34 12 1 354 347 340